Montana Department of Transportation

Main Content

Accidents and Incidents Report

Hourly Weather Roundup

ASUS45 KTFX 272019
RWRMT 
MONTANA HOURLY WEATHER ROUNDUP
NATIONAL WEATHER SERVICE GREAT FALLS MT
119 PM MST THU NOV 27 2014

NOTE: "FAIR" INDICATES FEW OR NO CLOUDS BELOW 12000 FEET WITH NO
SIGNIFICANT WEATHER AND/OR OBSTRUCTIONS TO VISIBILITY.

* THESE STATIONS ARE NOT UNDER NWS QUALITY CONTROL. THEY DO NOT
   REPORT WEATHER SUCH AS PRECIPITATION OR FOG.

MTZ001.007-043-272100-
WEST OF THE DIVIDE
CITY           SKY/WX    TMP DP  RH WIND       PRES   REMARKS
KALISPELL      CLOUDY    43  36  76 SE7       29.85F 
MISSOULA       CLOUDY    48  37  66 CALM      29.94F 
BUTTE          CLOUDY    46  30  54 CALM      30.03F 
MULLAN PASS    LGT RAIN  36  34  92 SW10G31   29.90F WCI  29 
* ESSEX        N/A       37  36  96 W1         N/A   
* EUREKA APT   PTCLDY    50  41  71 SE8       29.81F 
* HAMILTON APT PTCLDY    57  36  46 S14       29.93F 
* LIBBY APT    PTCLDY    52  43  72 S3        29.83F 
* LINCOLN      N/A       43  36  76 NE3        N/A   
* LOOKOUT PASS N/A       44  35  71 SE6G16     N/A   
* POLSON       N/A       49  37  63 SW5G19     N/A   
* RONAN APT    PTCLDY    45  37  74 SE7        N/A   
* SEELEY LAKE  N/A       41  37  86 SE3        N/A   
* THOMP F APT  PTCLDY    43  28  56 SE5G10     N/A   
* YAAK HILL    N/A       44  42  93 N/A        N/A   
--------------------------------

MTZ008-052.055-272100-
SOUTHWEST MONTANA
CITY           SKY/WX    TMP DP  RH WIND       PRES   REMARKS
BOZEMAN        PTSUNNY   45  30  56 CALM      29.97F 
DILLON         CLOUDY    57  28  33 SW20G29   30.03S 
* W YELLOWSTON PTCLDY    39  29  67 SW7G20     N/A   WCI  34 
* ENNIS APT    PTCLDY    52  28  40 SE15G24    N/A   
* THREE FORKS  SUNNY     46  12  25 SW8        N/A   
* BOULDER HILL N/A       48  25  41 S28G37     N/A   
* MONIDA PASS  N/A       37  35  92 SE17       N/A   WCI  27 
* RAYNOLDS PAS N/A       38  19  46 SE26       N/A   WCI  26 
* WHITEHALL    N/A       56  29  36 SW17G33    N/A   
* WISE RIVER   N/A       48  32  54 E3G12      N/A   
--------------------------------

MTZ009.010-012-014-046-048-049-054-272100-
EAST SLOPES AND CENTRAL MONTANA
CITY           SKY/WX    TMP DP  RH WIND       PRES   REMARKS
CUT BANK       SUNNY     50  36  59 W44G51    29.67S 
GREAT FALLS    SUNNY     57  36  46 SW36G47   29.74F 
HELENA         PTCLDY    46  32  58 VRB5      29.90F 
MALMSTROM AFB  SQUALL    57  36  46 SW38G49   29.75F 
* CONRAD       SUNNY     52  39  61 SW26G41    N/A   
* DEARBORN     N/A       58  33  39 S22G35     N/A   
* EAST GLACIER N/A       38  36  93 W33G40     N/A   WCI  25 
* MONARCH      N/A       47  22  37 SW26G46    N/A   
* PENDROY      N/A       50  32  50 W41G54     N/A   
* ROGERS PASS  N/A       44  32  63 SE18G34    N/A   
* SAINT MARY   N/A       42  37  83 SW11G26    N/A   
* SWEET GRASS  N/A       39  36  89 N6G14      N/A   WCI  35 
* WHITE SULPH  N/A       50  29  44 SW12G25    N/A   
--------------------------------

MTZ011-013-016-021-035-040-045-047-050-051-272100-
NORTH CENTRAL MONTANA
CITY           SKY/WX    TMP DP  RH WIND       PRES   REMARKS
HAVRE          PTCLDY    52  37  57 SW18      29.70F 
LEWISTOWN      SUNNY     54  36  51 W16       29.80F 
* N BAR RANCH  SUNNY     55  30  39 W23G30    29.80F 
* CHINOOK      PTCLDY    41  34  76 E6        29.70F 
* FORT BENTON  SUNNY     57  37  47 SW22G35   29.73F 
* MALTA APT    SUNNY     39  30  70 N/A        N/A   
* CHESTER      N/A       36  32  85 NE3        N/A   
* DENTON       N/A       52  28  40 SW8        N/A   
* JUDITH GAP   N/A       47  28  48 SW31G43    N/A   
* LOMA         N/A       56  39  53 SW16G21    N/A   
--------------------------------

MTZ017.020-022.027-061-062-272100-
NORTHEAST MONTANA
CITY           SKY/WX    TMP DP  RH WIND       PRES   REMARKS
GLASGOW        PTCLDY    30  28  92 E13       29.75F WCI  20 
GLENDIVE       CLOUDY    32  27  82 S12       29.81F WCI  23 
JORDAN         PTCLDY    45  34  65 W12       29.75F 
SIDNEY         PTSUNNY   28  25  89 SE1329.87F WCI  17 
WOLF POINT     CLOUDY    34  28  79 E9        29.80F WCI  27 
* BEAVER HILL  N/A       32  25  75 SE13G20    N/A   WCI  22 
* CIRCLE       N/A       38  33  82 S6G13      N/A   WCI  33 
* LINDSAY DVD  N/A       29  25  85 SE11G16    N/A   WCI  19 
* NAVAJO       N/A       18  15  88 SE13       N/A   WCI   5 
* PLENTYWOOD A PTSUNNY   19  16  88 E17       29.85F VSB 2    WCI   4 
* POPLAR APT   PTSUNNY   30  27  89 N/A       29.81F 
* SACO         N/A       30  27  89 E10        N/A   WCI  21 
* SCOBEY APT   PTCLDY    19  12  74 E9         N/A   WCI   8 
--------------------------------

MTZ028.042-056.058-272100-
SOUTHCENTRAL AND SOUTHEAST MONTANA
CITY           SKY/WX    TMP DP  RH WIND       PRES   REMARKS
BAKER          CLOUDY    34  27  76 SE12      29.84F WCI  25 
BILLINGS       PTCLDY    46  30  54 SW26G32   29.86F 
LIVINGSTON     CLOUDY    59  30  33 SW28G38   29.92F 
MILES CITY     CLOUDY    37  30  76 S7        29.82F WCI  32 
* BIG TIMBER A PTCLDY    55  28  35 SW40G54   29.80F 
* FORSYTH APT  PTSUNNY   39  34  82 CALM      29.81F 
* LAUREL APT   PTCLDY    45  27  49 SW10G16    N/A   
* ALZADA       N/A       27  26  96 SE4        N/A   
* HYSHAM       N/A       39  31  73 W5G10      N/A   WCI  35 
* LAME DEER    N/A       47  34  61 SW6G11     N/A   
* REED POINT   N/A       39  31  73 SE6        N/A   WCI  35 
* ROSCOE HILL  N/A       53  14  21 SW16G42    N/A   
--------------------------------

REGIONAL REPORTS...DAKOTAS
CITY           SKY/WX    TMP DP  RH WIND       PRES   REMARKS
WILLISTON      LGT SNOW  21  18  88 SE9       29.89F VSB 1    WCI  11 
DICKINSON      FRZ RAIN  21  18  88 SE20G30   29.86F WCI   6 
BEACH          CLOUDY    27  25  92 S21       29.83F WCI  13 
CROSBY         SNOW      21  21 100 SE18G26   29.92F VSB 1/2  WCI   6 
TIOGA          LGT SNOW  16  16 100 SE18      29.96F VSB 3/4  
BISMARCK       CLOUDY    10   3  73 SE10      30.13F WCI  -4 
GRAND FORKS    CLOUDY     5  -2  72 S10       30.37F WCI -10 
FARGO          SUNNY      7  -6  55 SE10      30.37F WCI  -7 
BUFFALO SD     SUNNY     28  21  75 S15       29.83F WCI  16 
RAPID CITY     PTSUNNY   30  27  89 S8        29.94F WCI  22 
--------------------------------

REGIONAL REPORTS...WYOMING/IDAHO/WASHINGTON
CITY           SKY/WX    TMP DP  RH WIND       PRES   REMARKS
GILLETTE       CLOUDY    45  28  51 SW20      29.91F 
SHERIDAN       PTSUNNY   50  27  41 NW8       29.88F 
CODY           PTCLDY    55  27  34 W18G32    29.95F 
YELLOWSTONE LA PTSUNNY   37  25  62 VRB6      30.20F WCI  32 
SALMON         CLOUDY    39  34  82 N3        30.06F 
MULLAN PASS    LGT RAIN  36  34  92 SW10G31   29.90S WCI  29 
SAND POINT     CLOUDY    48  48 100 S5        29.84F 
SPOKANE        PTSUNNY   54  43  67 SW23G30   29.83F 
--------------------------------

REGIONAL REPORTS...ALBERTA
CITY           SKY/WX    TMP DP  RH WIND       PRES   REMARKS
CALGARY        LGT SNOW  23  21  92 N14       29.74S VSB 3/4  WCI  10 
LETHBRIDGE     CLOUDY    28  28 100 NW9       29.74S WCI  19 
MEDICINE HAT   CLOUDY    32  28  85 N5        29.72R WCI  27 
EDMONTON       LGT SNOW   9   5  84 NE15      29.97S VSB 3/4  WCI  -8 
WATERTON GATE  N/A       48  36  63 SW31G45    N/A   
CARDSTON       N/A       28  28 100 NE7        N/A   WCI  21 
MILK RIVER     N/A       28  28 100 N15G21     N/A   WCI  16 
--------------------------------

REGIONAL REPORTS...SASKATCHEWAN
CITY           SKY/WX    TMP DP  RH WIND       PRES   REMARKS
SWIFT CURRENT  LGT SNOW  21  19  92 E18G24    29.76F VSB 1    WCI   6 
MOOSE JAW      LGT SNOW  14  12  92 E14       29.95F VSB 1 1/2 WCI  -1 
REGINA         SNOW      12   9  88 E14       29.98F VSB 1/2  WCI  -4 
VAL MARIE      N/A       28  27  96 S10        N/A   WCI  19 
ASSINIBOIA     N/A       19  18  96 E15        N/A   WCI   5 
CORONACH       N/A       19  16  88 E14G21     N/A   WCI   5 

--------------------------------